Stations météo

Publicité
Biscarosse, France (7503): Température de l'air & dewpoint: 20.05.2019 17:00:00 - 26.05.2019 17:00:00 (CEST)Biscarosse, France (7503): Température de l'air 5cm: 20.05.2019 17:00:00 - 26.05.2019 17:00:00 (CEST)Biscarosse, France (7503): Température de l'air -20cm & Température de l'air -100cm: 20.05.2019 17:00:00 - 26.05.2019 17:00:00 (CEST)Biscarosse, France (7503): Vitesse du vent & gusts: 20.05.2019 17:00:00 - 26.05.2019 17:00:00 (CEST)Biscarosse, France (7503): Direction du vent: 20.05.2019 17:00:00 - 26.05.2019 17:00:00 (CEST)Biscarosse, France (7503): reduced air pressure: 20.05.2019 17:00:00 - 26.05.2019 17:00:00 (CEST)Biscarosse, France (7503): visibility: 20.05.2019 17:00:00 - 26.05.2019 17:00:00 (CEST)Biscarosse, France (7503): Ensoleillement: 20.05.2019 17:00:00 - 26.05.2019 17:00:00 (CEST)Biscarosse, France (7503): Quantités de précipitations: 20.05.2019 17:00:00 - 26.05.2019 17:00:00 (CEST)
Date & Time tt [°C] td [°C] tt 5cm [°C] tt -20cm [°C] tt -100cm [°C] ff [km/h] ff [knt] fx [km/h] fx [knt] dd ppp [hPa] vv [km] sd [min] rr [mm]
26.05.2019 17:00:00 18,3 13,8 22,4 22,7 19,5 21 11 23 13 WNW 1021,5 20 47 0,0
26.05.2019 16:00:00 16,9 13,6 21,5 22,4 19,5 16 9 27 14 NW 1021,8 20 8 0,0
26.05.2019 15:00:00 16,6 13,5 20,0 21,9 19,5 21 11 26 14 NW 1022,0 20 3 0,0
26.05.2019 14:00:00 18,0 14,3 22,6 21,6 19,5 14 8 17 9 W 1022,2 20 4 0,0
26.05.2019 13:00:00 17,9 13,6 21,7 21,3 19,5 13 7 16 9 WNW 1022,4 20 17 0,0
26.05.2019 12:00:00 16,5 13,0 19,6 21,2 19,5 14 8 17 9 WNW 1022,7 20 0 0,0
26.05.2019 11:00:00 16,1 13,6 18,2 21,2 19,5 13 7 16 9 WNW 1022,6 20 31 0,0
26.05.2019 10:00:00 15,4 13,1 16,8 21,3 19,5 10 5 16 9 NW 1022,7 20 5 0,0
26.05.2019 09:00:00 15,1 13,5 15,4 21,6 19,5 15 8 21 12 WNW 1022,5 19 5 0,0
26.05.2019 08:00:00 15,2 13,6 14,0 21,8 19,4 16 9 20 11 W 1022,2 17 32 0,0
26.05.2019 07:00:00 14,5 12,7 13,5 22,2 19,4 11 6 16 9 NW 1022,2 18 2 0,0
26.05.2019 06:00:00 14,3 12,7 13,5 22,5 19,4 14 8 23 12 NW 1022,3 19 0 0,0
26.05.2019 05:00:00 14,2 12,9 13,4 22,9 19,4 20 11 26 14 NW 1022,5 16 0 0,0
26.05.2019 04:00:00 13,9 12,9 13,5 23,2 19,3 24 13 32 18 WNW 1022,7 4,3 0 1,4
26.05.2019 03:00:00 14,1 12,7 13,6 23,5 19,3 20 11 28 15 NW 1023,0 8 0 0,2
26.05.2019 02:00:00 15,0 12,1 14,5 23,9 19,3 18 10 27 14 NW 1023,4 20 0 0,0
26.05.2019 01:00:00 15,1 11,5 14,6 24,2 19,3 18 10 26 14 NW 1023,7 20 0 0,0
26.05.2019 00:00:00 15,1 11,1 14,7 24,5 19,3 23 13 29 16 NW 1023,9 20 0 0,0
25.05.2019 23:00:00 15,1 11,7 14,7 24,8 19,3 23 13 31 17 NW 1023,9 19 0 0,0
25.05.2019 22:00:00 15,4 11,6 15,5 25,0 19,2 21 12 27 15 NNW 1023,4 20 0 0,0
25.05.2019 21:00:00 15,4 11,6 15,6 25,1 19,3 23 13 30 16 NW 1023,2 20 24 0,0
25.05.2019 20:00:00 15,9 10,9 17,4 25,1 19,2 25 13 30 16 NW 1022,9 20 23 0,0
25.05.2019 19:00:00 16,2 10,7 18,3 24,8 19,2 24 13 30 16 NW 1023,0 20 17 0,0
25.05.2019 18:00:00 17,2 10,3 21,4 24,4 19,2 24 13 32 17 NW 1023,1 20 55 0,0
25.05.2019 17:00:00 18,4 11,2 25,0 23,9 19,3 26 14 36 19 NNW 1022,9 20 60 0,0
25.05.2019 16:00:00 18,1 12,3 22,4 23,2 19,2 29 15 36 19 NW 1023,0 20 43 0,0
25.05.2019 15:00:00 17,5 12,6 21,0 22,5 19,2 27 14 36 20 NNW 1023,1 20 27 0,0
25.05.2019 14:00:00 18,3 12,5 25,8 21,7 19,2 23 12 31 17 NNW 1023,0 20 60 0,0
25.05.2019 13:00:00 18,5 12,9 26,5 21,2 19,2 21 12 26 14 NNW 1023,1 20 60 0,0
25.05.2019 12:00:00 18,2 12,6 22,6 20,9 19,2 17 9 27 14 NNW 1022,7 20 57 0,0
25.05.2019 11:00:00 17,4 12,5 16,4 20,9 19,2 21 11 27 15 N 1022,7 20 23 0,0
25.05.2019 10:00:00 15,6 11,2 16,2 20,9 19,2 17 9 23 12 N 1022,4 20 0 0,0
25.05.2019 09:00:00 16,1 10,6 16,8 21,1 19,2 14 8 21 11 N 1021,9 17 0 0,0
25.05.2019 08:00:00 15,4 12,3 14,9 21,3 19,2 14 8 19 10 N 1021,3 8 9 0,0
25.05.2019 07:00:00 15,1 13,6 14,8 21,5 19,2 17 9 26 14 NNW 1020,7 11 0 0,0
25.05.2019 06:00:00 15,5 14,2 15,3 21,7 19,1 23 12 34 19 NW 1020,4 12 0 0,0
25.05.2019 05:00:00 15,6 14,0 15,4 21,9 19,1 24 13 36 19 NW 1020,3 15 0 0,0
25.05.2019 04:00:00 15,5 13,9 15,4 22,2 19,1 29 15 35 19 WNW 1020,3 15 0 0,0
25.05.2019 03:00:00 15,4 13,6 15,4 22,5 19,1 26 14 32 17 WNW 1020,3 16 0 0,0
25.05.2019 02:00:00 15,4 13,4 15,3 22,8 19,1 24 13 32 17 NW 1020,6 18 0 0,0
25.05.2019 01:00:00 15,5 13,2 14,9 23,1 19,1 25 14 35 19 NW 1021,0 15 0 0,0
25.05.2019 00:00:00 15,3 12,8 14,4 23,5 19,1 30 16 40 22 NW 1020,9 19 0 0,0
24.05.2019 23:00:00 15,2 12,3 14,8 23,8 19,1 31 17 38 20 NW 1020,8 20 0 0,0
24.05.2019 22:00:00 15,3 12,6 14,7 24,1 19,1 28 15 34 19 NW 1020,0 19 10 0,0
24.05.2019 21:00:00 16,0 12,2 16,0 24,2 19,1 30 16 36 20 NNW 1019,6 20 48 0,0
24.05.2019 20:00:00 17,0 11,9 19,8 24,2 19,1 29 16 36 20 NNW 1019,1 19 55 0,0
24.05.2019 19:00:00 17,3 13,6 18,3 24,1 19,1 26 14 32 17 NW 1018,9 19 16 0,0
24.05.2019 18:00:00 16,6 13,3 18,2 23,7 19,1 27 15 33 18 NW 1019,1 17 5 0,0
24.05.2019 17:00:00 17,1 13,6 20,3 23,1 19,1 27 15 32 18 NW 1019,2 19 26 0,0
24.05.2019 16:00:00 18,8 14,7 24,4 22,3 19,1 18 10 23 13 WNW 1019,1 20 49 0,0
24.05.2019 15:00:00 18,2 13,5 22,3 21,5 19,1 19 11 24 13 WNW 1019,2 20 53 0,0
24.05.2019 14:00:00 18,1 13,6 23,3 20,9 19,1 21 12 29 16 NW 1019,5 20 51 0,0
24.05.2019 13:00:00 17,6 13,5 23,9 20,5 19,1 26 14 29 16 NW 1019,5 20 54 0,0
24.05.2019 12:00:00 17,4 14,1 19,2 20,2 19,1 17 9 20 11 WNW 1019,3 18 9 0,0
24.05.2019 11:00:00 16,4 13,3 17,5 20,1 19,1 11 6 17 9 WNW 1019,1 19 10 0,0
24.05.2019 10:00:00 15,7 13,0 16,9 20,2 19,1 16 9 22 12 NW 1019,2 19 0 0,0
24.05.2019 09:00:00 15,6 12,9 15,4 20,3 19,1 19 10 23 12 NW 1019,1 19 0 0,0
24.05.2019 08:00:00 15,4 13,4 15,1 20,5 19,1 20 11 23 12 NW 1018,6 17 0 0,0
24.05.2019 07:00:00 15,2 13,4 14,7 20,7 19,1 21 11 28 15 WNW 1018,3 17 0 0,0
24.05.2019 06:00:00 14,9 13,3 14,4 20,9 19,1 18 10 23 12 W 1017,9 18 0 0,0
24.05.2019 05:00:00 15,0 13,2 14,8 21,2 19,0 20 11 25 14 W 1018,1 18 0 0,0
24.05.2019 04:00:00 15,1 13,6 14,7 21,4 19,0 19 11 25 13 W 1018,3 17 0 0,0
24.05.2019 03:00:00 15,0 13,5 14,7 21,7 19,0 22 12 27 15 W 1018,6 17 0 0,0
24.05.2019 02:00:00 15,2 14,1 14,5 22,0 19,0 22 12 33 18 W 1019,0 14 0 0,0
24.05.2019 01:00:00 15,2 14,1 14,6 22,3 19,0 28 15 34 18 W 1019,1 13 0 0,0
24.05.2019 00:00:00 15,6 14,6 15,1 22,6 19,0 24 13 29 16 W 1019,1 11 0 0,0
23.05.2019 23:00:00 15,8 14,8 14,9 22,9 19,0 22 12 26 14 W 1019,1 10 0 0,0
23.05.2019 22:00:00 15,6 14,6 15,1 23,2 19,0 17 9 22 12 W 1018,6 11 0 0,0
23.05.2019 21:00:00 16,1 15,3 15,9 23,3 19,0 16 9 23 13 W 1018,2 11 10 0,4
23.05.2019 20:00:00 16,4 15,1 16,1 23,2 19,0 17 9 24 13 W 1018,1 11 0 0,0
23.05.2019 19:00:00 17,5 14,9 19,5 23,0 19,0 12 6 16 8 WSW 1017,6 20 5 0,0
23.05.2019 18:00:00 18,0 15,3 21,3 22,7 18,9 14 8 18 10 WSW 1017,6 19 6 0,0
23.05.2019 17:00:00 18,7 15,2 23,0 22,4 18,9 16 9 23 13 WSW 1017,4 20 36 0,0
23.05.2019 16:00:00 19,1 15,8 18,8 22,3 18,9 19 10 24 13 SSW 1017,4 20 15 0,0
23.05.2019 15:00:00 17,2 15,2 18,6 22,2 18,9 15 8 21 11 SSW 1017,3 20 0 0,0
23.05.2019 14:00:00 17,4 15,0 19,1 22,0 18,9 9 5 13 7 SSW 1017,9 18 0 0,0
23.05.2019 13:00:00 18,4 15,1 20,7 21,7 18,9 8 4 12 7 SSW 1017,9 20 0 0,0
23.05.2019 12:00:00 18,6 14,1 20,9 21,4 18,8 8 4 15 8 SSW 1018,0 20 14 0,0
23.05.2019 11:00:00 18,1 12,5 20,2 21,2 18,8 9 5 13 7 SSW 1017,7 18 12 0,0
23.05.2019 10:00:00 20,8 10,9 23,4 21,2 18,8 6 4 11 6 SW 1017,5 20 38 0,0
23.05.2019 09:00:00 18,6 11,7 20,7 21,4 18,7 6 3 16 8 SE 1017,4 20 52 0,0
23.05.2019 08:00:00 16,3 10,4 13,8 21,7 18,7 9 5 16 9 E 1017,0 20 27 0,0
23.05.2019 07:00:00 14,6 9,4 13,6 22,1 18,7 6 4 21 11 E 1016,9 20 0 0,0
23.05.2019 06:00:00 15,5 10,3 13,9 22,5 18,7 14 7 20 11 E 1016,8 20 0 0,0
23.05.2019 05:00:00 15,4 10,8 13,6 22,9 18,6 12 7 18 10 E 1016,7 20 0 0,0
23.05.2019 04:00:00 15,5 11,3 13,7 23,2 18,6 11 6 19 11 E 1017,0 20 0 0,0
23.05.2019 03:00:00 15,5 11,1 13,4 23,6 18,5 11 6 15 8 E 1017,2 20 0 0,0
23.05.2019 02:00:00 16,4 11,5 15,1 24,0 18,5 10 5 14 8 E 1017,6 20 0 0,0
23.05.2019 01:00:00 17,4 12,1 16,4 24,4 18,5 10 5 18 10 E 1017,7 20 0 0,0
23.05.2019 00:00:00 17,8 12,0 16,8 24,8 18,5 11 6 16 8 ENE 1017,8 20 0 0,0
22.05.2019 23:00:00 17,7 11,9 16,1 25,1 18,5 9 5 14 8 ENE 1017,9 20 0 0,0
22.05.2019 22:00:00 17,3 12,4 16,1 25,3 18,4 6 3 19 10 NNE 1017,8 17 4 0,0
22.05.2019 21:00:00 20,4 12,4 19,9 25,4 18,4 15 8 25 14 N 1017,7 20 55 0,0
22.05.2019 20:00:00 21,5 12,9 25,3 25,3 18,4 21 11 30 16 N 1017,6 20 60 0,0
22.05.2019 19:00:00 21,2 12,3 26,6 24,9 18,4 22 12 34 19 N 1017,9 20 60 0,0
22.05.2019 18:00:00 20,5 12,7 26,3 24,4 18,4 20 11 29 16 NNW 1018,2 20 60 0,0
22.05.2019 17:00:00 20,7 11,6 28,2 23,7 18,4 23 13 30 16 NNW 1018,6 20 60 0,0
22.05.2019 16:00:00 20,2 13,9 28,1 22,9 18,4 19 10 26 14 N 1019,3 20 60 0,0
22.05.2019 15:00:00 20,1 14,2 26,9 22,0 18,4 16 9 18 10 NNW 1019,6 20 60 0,0
22.05.2019 14:00:00 18,3 13,4 26,7 21,1 18,4 12 6 16 9 NW 1020,0 20 60 0,0
22.05.2019 13:00:00 18,3 13,6 25,3 20,2 18,3 11 6 14 7 NW 1020,3 20 60 0,0
22.05.2019 12:00:00 17,9 13,0 25,2 19,6 18,3 8 4 12 7 NW 1020,5 19 60 0,0
22.05.2019 11:00:00 16,7 12,4 24,2 19,3 18,3 8 4 9 5 W 1020,3 19 60 0,0
22.05.2019 10:00:00 16,2 13,1 21,6 19,3 18,3 4 2 6 3 W 1020,5 18 60 0,0
22.05.2019 09:00:00 14,5 13,0 16,8 19,5 18,3 5 3 7 4 SSW 1020,4 17 43 0,0
22.05.2019 08:00:00 11,9 11,1 9,3 19,8 18,3 0 0 5 3 N 1020,1 16 26 0,0
22.05.2019 07:00:00 10,3 9,1 8,9 20,1 18,2 5 3 6 4 NE 1019,9 20 0 0,0
22.05.2019 06:00:00 10,1 8,7 8,8 20,5 18,2 5 3 11 6 NE 1019,8 20 0 0,0
22.05.2019 05:00:00 10,3 9,2 8,9 20,9 18,2 0 0 5 3 N 1019,9 20 0 0,0
22.05.2019 04:00:00 10,8 9,6 9,2 21,3 18,1 5 3 8 4 NNE 1019,9 20 0 0,0
22.05.2019 03:00:00 11,4 10,1 9,9 21,7 18,1 5 3 7 4 NE 1019,9 20 0 0,0
22.05.2019 02:00:00 12,2 10,8 10,3 22,2 18,1 5 3 7 4 N 1020,1 20 0 0,0
22.05.2019 01:00:00 12,4 10,3 10,8 22,6 18,1 0 0 9 5 N 1020,1 20 0 0,0
22.05.2019 00:00:00 13,2 10,6 12,3 23,0 18,0 7 4 14 7 NE 1020,3 20 0 0,0
21.05.2019 23:00:00 13,5 11,0 12,6 23,3 18,0 6 3 13 7 NE 1020,4 20 0 0,0
21.05.2019 22:00:00 14,5 11,1 13,6 23,6 18,0 7 4 27 15 NNE 1019,7 20 7 0,0
21.05.2019 21:00:00 16,0 11,8 16,2 23,8 18,0 21 11 31 17 N 1019,6 20 60 0,0
21.05.2019 20:00:00 16,6 12,1 19,9 23,7 18,0 26 14 32 18 NNW 1019,2 20 60 0,0
21.05.2019 19:00:00 16,9 11,8 21,8 23,5 18,0 26 14 31 17 NNW 1019,2 20 60 0,0
21.05.2019 18:00:00 16,9 11,8 22,7 23,0 18,0 24 13 29 15 NNW 1019,3 20 60 0,0
21.05.2019 17:00:00 17,2 11,2 24,3 22,3 18,0 23 12 28 15 NW 1019,3 20 60 0,0
21.05.2019 16:00:00 17,3 11,1 25,2 21,4 18,0 19 10 22 12 NW 1019,4 20 60 0,0
21.05.2019 15:00:00 17,2 10,8 25,5 20,5 18,0 17 9 21 12 WNW 1019,5 20 60 0,0
21.05.2019 14:00:00 16,9 10,0 24,7 19,6 18,0 17 9 22 12 NW 1019,7 20 60 0,0
21.05.2019 13:00:00 16,8 10,9 24,0 18,9 18,0 15 8 19 10 NW 1019,8 20 60 0,0
21.05.2019 12:00:00 16,5 10,6 20,1 18,4 18,0 12 6 17 9 NW 1019,8 20 39 0,0
21.05.2019 11:00:00 16,4 10,0 17,9 18,1 18,0 12 6 14 8 WNW 1019,5 20 43 0,0
21.05.2019 10:00:00 15,1 10,7 16,3 18,1 17,9 4 2 5 3 W 1019,1 20 21 0,0
21.05.2019 09:00:00 14,2 10,6 16,2 18,2 17,9 3 1 5 3 WSW 1018,8 20 26 0,0
21.05.2019 08:00:00 13,2 11,3 11,6 18,3 17,9 4 2 7 4 SE 1018,5 20 32 0,0
21.05.2019 07:00:00 11,6 9,8 11,2 18,6 17,9 4 2 5 3 ESE 1018,1 20 0 0,0
21.05.2019 06:00:00 11,7 9,8 11,2 18,8 17,9 4 2 6 4 ENE 1017,6 20 0 0,0
21.05.2019 05:00:00 11,5 9,4 10,3 19,1 17,9 5 3 6 3 ENE 1017,5 20 0 0,0
21.05.2019 04:00:00 11,0 9,1 9,0 19,5 17,9 5 3 7 4 ENE 1017,3 20 0 0,0
21.05.2019 03:00:00 10,1 8,7 8,8 19,8 17,9 0 0 5 3 N 1017,2 20 0 0,0
21.05.2019 02:00:00 11,0 8,7 9,8 20,2 17,9 5 3 10 5 ENE 1017,3 20 0 0,0
21.05.2019 01:00:00 11,9 8,9 10,6 20,6 17,9 7 4 21 11 NNE 1017,6 20 0 0,0
21.05.2019 00:00:00 13,3 9,5 12,4 20,9 17,9 15 8 25 13 NNW 1017,7 20 0 0,0
20.05.2019 23:00:00 13,7 9,5 13,2 21,2 17,9 12 7 24 13 N 1017,7 20 0 0,0
20.05.2019 22:00:00 13,8 10,4 13,4 21,4 17,9 17 9 22 12 NNW 1016,9 20 4 0,0
20.05.2019 21:00:00 14,3 10,5 14,4 21,5 17,9 16 9 20 11 NW 1016,5 20 26 0,0
20.05.2019 20:00:00 15,3 10,5 17,1 21,4 17,9 14 7 20 11 NW 1016,4 20 39 0,0
20.05.2019 19:00:00 16,0 10,7 18,1 21,1 17,9 16 9 23 12 NW 1016,1 20 42 0,0
20.05.2019 18:00:00 15,8 11,2 19,0 20,7 17,9 19 11 23 13 NW 1016,0 20 40 0,0
20.05.2019 17:00:00 16,4 12,0 20,4 20,0 17,9 18 10 23 13 NW 1015,7 20 46 0,0

tt = Température de l'air
td = dewpoint
tt 5cm = Température de l'air 5cm
tt -20cm = Température de l'air -20cm
tt -100cm = Température de l'air -100cm
ff = Vitesse du vent
fx = gusts
dd = Direction du vent
ppp = reduced air pressure
vv = visibility
sd = Ensoleillement
rr = Quantités de précipitations

stations d'obs. à proximité